| time (UTC) | temp F | wind direction | speed MPH | gust MPH | rain 1hr in | rain 24hr in | rain mn in | humidity % | barometer mb |
| 20260507051716 | 58 | 135 | 1.0 | 2.0 | 0.00 | 0.00 | 0.00 | 93 | 1019.0 |
| 20260507050715 | 58 | 135 | 1.0 | 2.0 | 0.00 | 0.00 | 0.00 | 94 | 1019.0 |
| 20260507045715 | 58 | 135 | 1.0 | 2.0 | 0.00 | 0.00 | 0.00 | 94 | 1019.0 |
| 20260507044714 | 59 | 135 | 1.0 | 2.0 | 0.00 | 0.00 | 0.00 | 93 | 1019.0 |
| 20260507043713 | 59 | 135 | 1.0 | 2.0 | 0.00 | 0.00 | 0.00 | 93 | 1019.0 |
| 20260507042712 | 60 | 107 | 1.0 | 2.0 | 0.00 | 0.00 | 0.00 | 93 | 1018.0 |
| 20260507041712 | 60 | 107 | 1.0 | 2.0 | 0.00 | 0.00 | 0.00 | 93 | 1018.0 |
| 20260507040711 | 60 | 107 | 1.0 | 2.0 | 0.00 | 0.00 | 0.00 | 92 | 1018.0 |
| 20260507035711 | 60 | 107 | 1.0 | 2.0 | 0.00 | 0.00 | 0.00 | 92 | 1018.0 |
| 20260507034710 | 60 | 107 | 1.0 | 2.0 | 0.00 | 0.00 | 0.00 | 93 | 1018.0 |
| 20260507033709 | 60 | 107 | 1.0 | 2.0 | 0.00 | 0.00 | 0.00 | 93 | 1018.0 |
| 20260507032708 | 60 | 157 | 1.0 | 2.0 | 0.00 | 0.00 | 0.00 | 92 | 1018.0 |
| 20260507031707 | 60 | 157 | 1.0 | 2.0 | 0.00 | 0.00 | 0.00 | 92 | 1018.0 |
| 20260507030707 | 61 | 18 | 1.0 | 1.0 | 0.00 | 0.00 | 0.00 | 92 | 1018.0 |
| 20260507025706 | 61 | 18 | 1.0 | 1.0 | 0.00 | 0.00 | 0.00 | 92 | 1018.0 |
| 20260507024705 | 61 | 18 | 1.0 | 1.0 | 0.00 | 0.00 | 0.00 | 92 | 1018.0 |
| 20260507023705 | 61 | 18 | 1.0 | 1.0 | 0.00 | 0.00 | 0.00 | 92 | 1018.0 |
| 20260507022704 | 61 | 177 | 3.0 | 2.0 | 0.00 | 0.00 | 0.00 | 91 | 1017.0 |
| 20260507021703 | 61 | 177 | 3.0 | 2.0 | 0.00 | 0.00 | 0.00 | 91 | 1017.0 |
| 20260507020703 | 61 | 177 | 3.0 | 2.0 | 0.00 | 0.00 | 0.00 | 92 | 1017.0 |
| 20260507015702 | 61 | 177 | 3.0 | 2.0 | 0.00 | 0.00 | 0.00 | 92 | 1017.0 |
| 20260507014702 | 61 | 18 | 1.0 | 1.0 | 0.00 | 0.00 | 0.00 | 91 | 1017.0 |
| 20260507013701 | 61 | 18 | 1.0 | 1.0 | 0.00 | 0.00 | 0.00 | 91 | 1017.0 |
| 20260507012700 | 62 | 336 | 5.0 | 5.0 | 0.00 | 0.00 | 0.00 | 90 | 1016.0 |
| 20260507011659 | 62 | 336 | 5.0 | 5.0 | 0.00 | 0.00 | 0.00 | 90 | 1016.0 |
| 20260507010658 | 63 | 173 | 4.0 | 3.0 | 0.00 | 0.00 | 0.00 | 88 | 1016.0 |
| 20260507005658 | 63 | 0 | 0.0 | 0.0 | 0.00 | 0.00 | 0.00 | 86 | 1016.0 |
| 20260507004657 | 63 | 0 | 0.0 | 0.0 | 0.00 | 0.00 | 0.00 | 86 | 1016.0 |
| 20260507003657 | 64 | 324 | 5.0 | 5.0 | 0.00 | 0.00 | 0.00 | 82 | 1016.0 |
| 20260507002656 | 64 | 324 | 5.0 | 5.0 | 0.00 | 0.00 | 0.00 | 82 | 1014.0 |
| 20260507001655 | 64 | 324 | 5.0 | 5.0 | 0.00 | 0.00 | 0.00 | 82 | 1014.0 |
| 20260507000655 | 66 | 270 | 3.0 | 3.0 | 0.00 | 0.00 | 0.00 | 79 | 1014.0 |
| 20260506235654 | 67 | 126 | 1.0 | 1.0 | 0.00 | 0.00 | 0.00 | 75 | 1014.0 |
| 20260506234653 | 67 | 126 | 1.0 | 1.0 | 0.00 | 0.00 | 0.00 | 75 | 1014.0 |
| 20260506233653 | 67 | 126 | 1.0 | 1.0 | 0.00 | 0.00 | 0.00 | 75 | 1014.0 |
| 20260506232652 | 67 | 138 | 5.0 | 5.0 | 0.00 | 0.00 | 0.00 | 75 | 1013.0 |
| 20260506231651 | 68 | 138 | 5.0 | 7.0 | 0.00 | 0.00 | 0.00 | 73 | 1013.0 |
| 20260506230650 | 68 | 138 | 5.0 | 7.0 | 0.00 | 0.00 | 0.00 | 73 | 1013.0 |
| 20260506225650 | 68 | 180 | 6.0 | 0.0 | 0.00 | 0.00 | 0.00 | 72 | 1013.0 |
| 20260506224649 | 73 | 180 | 6.0 | 0.0 | 0.00 | 0.00 | 0.00 | 60 | 1013.0 |
| 20260506223648 | 73 | 180 | 6.0 | 0.0 | 0.00 | 0.00 | 0.00 | 60 | 1013.0 |
| 20260506222648 | 72 | 180 | 6.0 | 0.0 | 0.00 | 0.00 | 0.00 | 63 | 1013.0 |
| 20260506221647 | 71 | 180 | 6.0 | 0.0 | 0.00 | 0.00 | 0.00 | 63 | 1013.0 |
| 20260506220646 | 71 | 180 | 6.0 | 0.0 | 0.00 | 0.00 | 0.00 | 63 | 1013.0 |
| 20260506215646 | 71 | 140 | 6.0 | 0.0 | 0.00 | 0.00 | 0.00 | 63 | 1013.0 |
| 20260506214645 | 69 | 144 | 4.0 | 5.0 | 0.00 | 0.00 | 0.00 | 68 | 1013.0 |
| 20260506213644 | 69 | 140 | 6.0 | 0.0 | 0.00 | 0.00 | 0.00 | 68 | 1013.0 |
| 20260506212644 | 70 | 138 | 7.0 | 7.0 | 0.00 | 0.00 | 0.00 | 68 | 1013.0 |
| 20260506211643 | 70 | 138 | 7.0 | 7.0 | 0.00 | 0.00 | 0.00 | 68 | 1013.0 |
| 20260506210032 | 73 | 165 | 11.0 | 11.0 | 0.00 | 0.00 | 0.00 | 62 | 1013.0 |
| 20260506205031 | 73 | 140 | 9.0 | 0.0 | 0.00 | 0.00 | 0.00 | 61 | 1013.0 |
| 20260506204030 | 73 | 140 | 9.0 | 0.0 | 0.00 | 0.00 | 0.00 | 61 | 1013.0 |
| 20260506203030 | 75 | 140 | 9.0 | 0.0 | 0.00 | 0.00 | 0.00 | 56 | 1013.0 |
| 20260506202020 | 75 | 140 | 9.0 | 0.0 | 0.00 | 0.00 | 0.00 | 56 | 1013.0 |
| 20260506201019 | 76 | 140 | 6.0 | 0.0 | 0.00 | 0.00 | 0.00 | 49 | 1013.0 |
| 20260506200019 | 76 | 140 | 6.0 | 0.0 | 0.00 | 0.00 | 0.00 | 49 | 1013.0 |
| 20260506195018 | 78 | 140 | 6.0 | 0.0 | 0.00 | 0.00 | 0.00 | 45 | 1013.0 |
| 20260506194018 | 78 | 140 | 6.0 | 0.0 | 0.00 | 0.00 | 0.00 | 45 | 1013.0 |
| 20260506193017 | 77 | 78 | 8.0 | 8.0 | 0.00 | 0.00 | 0.00 | 23 | 1013.0 |
| 20260506192016 | 77 | 78 | 8.0 | 8.0 | 0.00 | 0.00 | 0.00 | 23 | 1014.0 |
| 20260506191016 | 78 | 140 | 6.0 | 0.0 | 0.00 | 0.00 | 0.00 | 25 | 1014.0 |
| 20260506190015 | 78 | 90 | 11.0 | 0.0 | 0.00 | 0.00 | 0.00 | 25 | 1014.0 |
| 20260506185014 | 76 | 90 | 11.0 | 0.0 | 0.00 | 0.00 | 0.00 | 27 | 1014.0 |
| 20260506184014 | 75 | 90 | 11.0 | 0.0 | 0.00 | 0.00 | 0.00 | 28 | 1014.0 |
| 20260506183013 | 75 | 90 | 11.0 | 0.0 | 0.00 | 0.00 | 0.00 | 28 | 1014.0 |
| 20260506182013 | 75 | 90 | 11.0 | 0.0 | 0.00 | 0.00 | 0.00 | 28 | 1015.0 |
| 20260506181012 | 76 | 1 | 5.0 | 5.0 | 0.00 | 0.00 | 0.00 | 28 | 1015.0 |
| 20260506180011 | 76 | 1 | 5.0 | 5.0 | 0.00 | 0.00 | 0.00 | 28 | 1015.0 |
| 20260506175011 | 75 | 343 | 7.0 | 8.0 | 0.00 | 0.00 | 0.00 | 27 | 1015.0 |
| 20260506172924 | 74 | 325 | 7.0 | 7.0 | 0.00 | 0.00 | 0.00 | 24 | 1015.0 |
| 20260506171923 | 74 | 325 | 7.0 | 7.0 | 0.00 | 0.00 | 0.00 | 24 | 1015.0 |
| 20260506170922 | 74 | 120 | 7.0 | 8.0 | 0.00 | 0.00 | 0.00 | 24 | 1015.0 |
| 20260506165921 | 67 | 0 | 0.0 | 0.0 | 0.00 | 0.00 | 0.00 | 68 | 1015.0 |
| 20260506164921 | 67 | 0 | 0.0 | 0.0 | 0.00 | 0.00 | 0.00 | 68 | 1015.0 |
| 20260506163920 | 68 | 0 | 0.0 | 0.0 | 0.00 | 0.00 | 0.00 | 67 | 1015.0 |
| 20260506162919 | 68 | 0 | 0.0 | 0.0 | 0.00 | 0.00 | 0.00 | 67 | 1016.0 |
| 20260506161933 | 68 | 0 | 0.0 | 0.0 | 0.00 | 0.00 | 0.00 | 66 | 1016.0 |
| 20260506160932 | 67 | 223 | 3.0 | 4.0 | 0.00 | 0.00 | 0.00 | 65 | 1016.0 |
| 20260506155932 | 67 | 223 | 3.0 | 4.0 | 0.00 | 0.00 | 0.00 | 65 | 1016.0 |
| 20260506154931 | 66 | 0 | 0.0 | 0.0 | 0.00 | 0.00 | 0.00 | 66 | 1016.0 |
| 20260506153930 | 66 | 80 | 3.0 | 7.0 | 0.00 | 0.00 | 0.00 | 66 | 1016.0 |
| 20260506152930 | 66 | 86 | 1.0 | 3.0 | 0.00 | 0.00 | 0.00 | 66 | 1017.0 |
| 20260506151929 | 65 | 233 | 1.0 | 1.0 | 0.00 | 0.00 | 0.00 | 70 | 1017.0 |
| 20260506150928 | 65 | 233 | 1.0 | 1.0 | 0.00 | 0.00 | 0.00 | 70 | 1017.0 |
| 20260506145928 | 54 | 0 | 0.0 | 0.0 | 0.00 | 0.00 | 0.00 | 94 | 1017.0 |
| 20260506144927 | 54 | 0 | 0.0 | 0.0 | 0.00 | 0.00 | 0.00 | 94 | 1017.0 |
| 20260506143927 | 61 | 78 | 1.0 | 1.0 | 0.00 | 0.00 | 0.00 | 79 | 1017.0 |
| 20260506142926 | 61 | 78 | 1.0 | 1.0 | 0.00 | 0.00 | 0.00 | 79 | 1017.0 |
| 20260506141925 | 60 | 78 | 1.0 | 1.0 | 0.00 | 0.00 | 0.00 | 80 | 1017.0 |
| 20260506140924 | 60 | 78 | 1.0 | 1.0 | 0.00 | 0.00 | 0.00 | 80 | 1017.0 |
| 20260506135924 | 52 | 0 | 0.0 | 0.0 | 0.00 | 0.00 | 0.00 | 94 | 1017.0 |
| 20260506134923 | 52 | 0 | 0.0 | 0.0 | 0.00 | 0.00 | 0.00 | 94 | 1017.0 |
| 20260506133923 | 56 | 0 | 0.0 | 0.0 | 0.00 | 0.00 | 0.00 | 85 | 1017.0 |
| 20260506132922 | 56 | 0 | 0.0 | 0.0 | 0.00 | 0.00 | 0.00 | 85 | 1017.0 |
| 20260506131921 | 56 | 0 | 0.0 | 0.0 | 0.00 | 0.00 | 0.00 | 86 | 1017.0 |
| 20260506130921 | 55 | 0 | 0.0 | 0.0 | 0.00 | 0.00 | 0.00 | 86 | 1017.0 |
| 20260506125920 | 54 | 0 | 0.0 | 0.0 | 0.00 | 0.00 | 0.00 | 86 | 1018.0 |
| 20260506124919 | 54 | 0 | 0.0 | 0.0 | 0.00 | 0.00 | 0.00 | 86 | 1018.0 |
| 20260506123918 | 51 | 0 | 0.0 | 0.0 | 0.00 | 0.00 | 0.00 | 94 | 1018.0 |
| 20260506122918 | 50 | 0 | 0.0 | 0.0 | 0.00 | 0.00 | 0.00 | 94 | 1018.0 |
| 20260506121917 | 50 | 0 | 0.0 | 0.0 | 0.00 | 0.00 | 0.00 | 94 | 1018.0 |
| 20260506120917 | 50 | 0 | 0.0 | 0.0 | 0.00 | 0.00 | 0.00 | 94 | 1018.0 |
| 20260506115916 | 50 | 248 | 2.0 | 3.0 | 0.00 | 0.00 | 0.00 | 94 | 1018.0 |
| 20260506114915 | 50 | 248 | 2.0 | 3.0 | 0.00 | 0.00 | 0.00 | 94 | 1018.0 |
| 20260506113915 | 50 | 248 | 2.0 | 3.0 | 0.00 | 0.00 | 0.00 | 94 | 1018.0 |
| 20260506112914 | 50 | 234 | 1.0 | 3.0 | 0.00 | 0.00 | 0.00 | 94 | 1018.0 |
| 20260506111913 | 51 | 234 | 1.0 | 3.0 | 0.00 | 0.00 | 0.00 | 93 | 1018.0 |
| 20260506110913 | 52 | 78 | 1.0 | 1.0 | 0.00 | 0.00 | 0.00 | 93 | 1018.0 |
| 20260506105912 | 52 | 78 | 1.0 | 1.0 | 0.00 | 0.00 | 0.00 | 93 | 1018.0 |
| 20260506104912 | 52 | 78 | 1.0 | 1.0 | 0.00 | 0.00 | 0.00 | 93 | 1018.0 |
| 20260506103911 | 52 | 234 | 1.0 | 3.0 | 0.00 | 0.00 | 0.00 | 92 | 1018.0 |
| 20260506102910 | 52 | 228 | 1.0 | 3.0 | 0.00 | 0.00 | 0.00 | 92 | 1018.0 |
| 20260506101910 | 52 | 78 | 1.0 | 1.0 | 0.00 | 0.00 | 0.00 | 92 | 1018.0 |
| 20260506100909 | 52 | 228 | 1.0 | 3.0 | 0.00 | 0.00 | 0.00 | 91 | 1018.0 |
| 20260506095908 | 52 | 228 | 1.0 | 3.0 | 0.00 | 0.00 | 0.00 | 91 | 1018.0 |
| 20260506094908 | 52 | 228 | 1.0 | 3.0 | 0.00 | 0.00 | 0.00 | 91 | 1018.0 |
| 20260506093907 | 53 | 78 | 1.0 | 1.0 | 0.00 | 0.00 | 0.00 | 89 | 1018.0 |
| 20260506092906 | 53 | 78 | 1.0 | 1.0 | 0.00 | 0.00 | 0.00 | 89 | 1018.0 |
| 20260506091906 | 53 | 78 | 1.0 | 1.0 | 0.00 | 0.00 | 0.00 | 91 | 1018.0 |
| 20260506090905 | 53 | 78 | 1.0 | 1.0 | 0.00 | 0.00 | 0.00 | 91 | 1018.0 |
| 20260506085904 | 53 | 227 | 1.0 | 3.0 | 0.00 | 0.00 | 0.00 | 91 | 1018.0 |
| 20260506084904 | 53 | 227 | 1.0 | 3.0 | 0.00 | 0.00 | 0.00 | 91 | 1018.0 |
| 20260506083903 | 53 | 78 | 1.0 | 1.0 | 0.00 | 0.00 | 0.00 | 89 | 1018.0 |
| 20260506082902 | 53 | 78 | 1.0 | 1.0 | 0.00 | 0.00 | 0.00 | 89 | 1018.0 |
| 20260506081901 | 54 | 78 | 1.0 | 1.0 | 0.00 | 0.00 | 0.00 | 91 | 1018.0 |
| 20260506080901 | 54 | 78 | 1.0 | 1.0 | 0.00 | 0.00 | 0.00 | 91 | 1018.0 |
| 20260506072856 | 54 | 78 | 1.0 | 1.0 | 0.00 | 0.00 | 0.00 | 90 | 1018.0 |
| 20260506071856 | 55 | 78 | 1.0 | 1.0 | 0.00 | 0.00 | 0.00 | 88 | 1018.0 |
| 20260506070855 | 55 | 78 | 1.0 | 1.0 | 0.00 | 0.00 | 0.00 | 88 | 1018.0 |
| 20260506061852 | 55 | 73 | 0.0 | 2.0 | 0.00 | 0.00 | 0.00 | 90 | 1018.0 |
| 20260506060851 | 55 | 73 | 0.0 | 2.0 | 0.00 | 0.00 | 0.00 | 90 | 1018.0 |